This demonstration page uses our WeatherBlox Daily Observations layout. Learn more.

Left ArrowRight Arrow

31.84235, -102.49876

Hourly Observations for September 24, 2022

Temp ( °F °C ) Dew Point ( °F °C ) Humidity (%) Winds ( mph kmh ) Pressure ( in mb ) Visibility ( mi km ) Precip ( " mm )
12:53 am 00:53 Clear 73 22.8 52 11.1 48 48 S 9 15 29.93 1014 10 16 0.00 0.00
1:53 am 01:53 Clear 72 22.2 51 10.6 48 48 S 7 11 29.93 1014 10 16 0.00 0.00
2:53 am 02:53 Clear 72 22.2 51 10.6 48 48 SSE 8 13 29.92 1013 10 16 0.00 0.00
3:53 am 03:53 Clear 70 21.1 51 10.6 51 51 SSE 7 11 29.91 1013 10 16 0.00 0.00
4:53 am 04:53 Clear 68 20 52 11.1 57 57 S 7 11 29.91 1013 10 16 0.00 0.00
5:53 am 05:53 Clear 68 20 52 11.1 57 57 S 7 11 29.91 1013 10 16 0.00 0.00
6:53 am 06:53 Clear 68 20 53 11.7 59 59 S 7 11 29.93 1013 10 16 0.00 0.00
7:53 am 07:53 Sunny 68 20 54 12.2 61 61 SSE 12 19 29.93 1014 10 16 0.00 0.00
8:53 am 08:53 Sunny 71 21.7 56 13.3 59 59 S 10 17 29.96 1014 10 16 0.00 0.00
9:53 am 09:53 Sunny 76 24.4 57 13.9 52 52 S 12 19 29.95 1014 10 16 0.00 0.00
10:53 am 10:53 Sunny 80 26.7 57 13.9 45 45 S 15 24 29.96 1015 10 16 0.00 0.00
11:53 am 11:53 Sunny 84 28.9 57 13.9 40 40 S 10 17 29.95 1014 10 16 0.00 0.00
12:53 pm 12:53 Sunny 86 30 54 12.2 33 33 S 6 9 29.94 1014 10 16 0.00 0.00
1:53 pm 13:53 Sunny 88 31.1 53 11.7 30 30 S 7 11 29.92 1013 10 16 0.00 0.00
2:53 pm 14:53 Sunny 91 32.8 50 10 25 25 VRB 6 9 29.89 1012 10 16 0.00 0.00
3:53 pm 15:53 Sunny 92 33.3 48 8.9 22 22 Calm 29.87 1011 10 16 0.00 0.00
4:53 pm 16:53 Sunny 91 32.8 49 9.4 24 24 VRB 3 6 29.85 1011 10 16 0.00 0.00
5:53 pm 17:53 Sunny 91 32.8 50 10 25 25 S 9 15 29.85 1011 10 16 0.00 0.00
6:53 pm 18:53 Sunny 90 32.2 49 9.4 25 25 S 7 11 29.85 1011 10 16 0.00 0.00
7:53 pm 19:53 Clear 85 29.4 49 9.4 29 29 S 7 11 29.86 1011 10 16 0.00 0.00
8:53 pm 20:53 Clear 82 27.8 49 9.4 32 32 SSE 8 13 29.87 1011 10 16 0.00 0.00
9:53 pm 21:53 Clear 82 27.8 52 11.1 35 35 S 12 19 29.88 1012 10 16 0.00 0.00
10:53 pm 22:53 Clear 80 26.7 53 11.7 39 39 S 12 19 29.89 1012 10 16 0.00 0.00
11:53 pm 23:53 Clear 78 25.6 54 12.2 43 43 S 12 19 29.89 1012 10 16 0.00 0.00

Powered by AerisWeather